Lanai City, HI

9:24 AM HST on February 09, 2016 (GMT -1000)
Lanai City

Weather History for PHNY - October, 2012

Change the Weather History Date:

Thursday, October 11, 2012

  Actual Average Record
Temperature  
Mean Temperature 74 °F -  
Max Temperature 84 °F 81 °F 86 °F (1979)
Min Temperature 65 °F 67 °F 60 °F (1953)
Cooling Degree Days 10    
Growing Degree Days 24 (Base 50)    
Moisture  
Dew Point 67 °F    
Average Humidity 78    
Maximum Humidity 100    
Minimum Humidity 55    
Precipitation  
Precipitation 0.00 in - - ()
Sea Level Pressure  
Sea Level Pressure 30.07 in    
Wind  
Wind Speed 4 mph (NE)    
Max Wind Speed 16 mph    
Max Gust Speed -    
Visibility 9 miles    
Events Fog    
Averages and records for this station are not official NWS values.
T = Trace of Precipitation, MM = Missing Value Source: NWS Daily Summary

Daily Weather History Graph

Daily Weather History Graph

Search for Another Location

Airport or City:

Trip Planner

Search our weather history database for the weather conditions in past years. The results will help you decide how hot, cold, wet, or windy it might be!

Date:

Astronomy

Oct. 11, 2012 Rise Set
Actual Time 6:22 AM HST 6:06 PM HST
Civil Twilight 5:59 AM HST 6:28 PM HST
Nautical Twilight 5:33 AM HST 6:54 PM HST
Astronomical Twilight 5:08 AM HST 7:20 PM HST
Moon 2:40 AM HST (10/11) 3:25 PM HST (10/11)
Length of Visible Light 12h 28m
Length of Day
11h 44m
Waning Crescent, 16% of the Moon is Illuminated
Oct 11
Waning Crescent
Oct 15
New
Oct 21
First Quarter
Oct 29
Full
Nov 6
Last Quarter

Hourly Weather History & Observations

Time (HST) Temp. Heat Index Dew Point Humidity Pressure Visibility Wind Dir Wind Speed Gust Speed Precip Events Conditions
12:56 AM 72.0 °F - 68.9 °F 90% 30.05 in 10.0 mi NNE 4.6 mph - N/A   Clear
1:56 AM 70.0 °F - 66.9 °F 90% 30.04 in 10.0 mi East 6.9 mph - N/A   Clear
2:56 AM 68.9 °F - 68.0 °F 97% 30.04 in 10.0 mi Calm Calm - N/A   Partly Cloudy
3:35 AM 69.8 °F - 69.8 °F 100% 30.10 in 10.0 mi Calm Calm - N/A   Partly Cloudy
3:56 AM 68.0 °F - 66.9 °F 96% 30.04 in 0.2 mi Calm Calm - N/A Fog Fog
4:03 AM 68.0 °F - 66.2 °F 94% 30.11 in 0.2 mi Calm Calm - N/A Fog Fog
4:10 AM 69.8 °F - 68.0 °F 94% 30.11 in 0.5 mi Calm Calm - N/A Fog Fog
4:13 AM 69.8 °F - 68.0 °F 94% 30.11 in 1.2 mi Calm Calm - N/A   Mostly Cloudy
4:15 AM 69.8 °F - 68.0 °F 94% 30.11 in 4.0 mi Calm Calm - N/A   Scattered Clouds
4:24 AM 69.8 °F - 68.0 °F 94% 30.11 in 10.0 mi Calm Calm - N/A   Mostly Cloudy
4:48 AM 69.8 °F - 68.0 °F 94% 30.11 in 10.0 mi Calm Calm - N/A   Scattered Clouds
4:56 AM 68.0 °F - 66.2 °F 94% 30.11 in 10.0 mi Calm Calm - N/A   Partly Cloudy
5:56 AM 65.8 °F - 64.9 °F 97% 30.07 in 10.0 mi Calm Calm - N/A   Clear
6:56 AM 68.9 °F - 68.0 °F 97% 30.08 in 10.0 mi Calm Calm - N/A   Clear
7:56 AM 77.0 °F - 68.9 °F 76% 30.08 in 10.0 mi North 4.6 mph - N/A   Clear
8:56 AM 81.9 °F 83.9 °F 65.8 °F 58% 30.08 in 10.0 mi Calm Calm - N/A   Clear
9:46 AM 84.2 °F 87.3 °F 68.0 °F 58% 30.14 in 10.0 mi Variable 4.6 mph - N/A   Mostly Cloudy
9:56 AM 83.8 °F 87.0 °F 68.0 °F 59% 30.06 in 10.0 mi SW 4.6 mph - N/A   Mostly Cloudy
10:07 AM 82.4 °F 85.4 °F 68.0 °F 62% 30.14 in 10.0 mi South 3.5 mph - N/A   Scattered Clouds
10:56 AM 82.4 °F 85.4 °F 68.0 °F 62% 30.12 in 10.0 mi Variable 4.6 mph - N/A   Partly Cloudy
11:37 AM 84.2 °F 86.6 °F 66.2 °F 55% 30.11 in 10.0 mi West 3.5 mph - N/A   Mostly Cloudy
11:56 AM 82.9 °F 85.8 °F 68.0 °F 60% 30.03 in 10.0 mi NNE 6.9 mph - N/A   Mostly Cloudy
12:56 PM 81.0 °F 83.8 °F 68.0 °F 65% 30.01 in 10.0 mi Calm Calm - N/A   Mostly Cloudy
1:56 PM 82.4 °F 85.4 °F 68.0 °F 62% 30.05 in 10.0 mi Calm Calm - N/A   Overcast
2:45 PM 80.6 °F 82.7 °F 66.2 °F 61% 30.05 in 10.0 mi NNE 10.4 mph - N/A   Scattered Clouds
2:56 PM 79.9 °F - 66.9 °F 64% 29.98 in 10.0 mi NNE 11.5 mph - N/A   Partly Cloudy
3:56 PM 81.0 °F 83.3 °F 66.9 °F 62% 29.97 in 10.0 mi NE 16.1 mph - N/A   Clear
4:56 PM 78.8 °F - 66.2 °F 65% 30.05 in 10.0 mi NE 11.5 mph - N/A   Partly Cloudy
5:56 PM 73.9 °F - 65.8 °F 76% 30.01 in 10.0 mi NE 10.4 mph - N/A   Clear
6:56 PM 72.0 °F - 66.9 °F 84% 30.04 in 10.0 mi NE 9.2 mph - N/A   Clear
7:56 PM 70.9 °F - 65.8 °F 84% 30.06 in 10.0 mi NNE 11.5 mph - N/A   Clear
8:56 PM 70.9 °F - 64.9 °F 81% 30.06 in 10.0 mi NE 12.7 mph - N/A   Clear
9:56 PM 70.9 °F - 63.0 °F 76% 30.08 in 10.0 mi ENE 8.1 mph - N/A   Partly Cloudy
10:09 PM 71.6 °F - 62.6 °F 73% 30.15 in 10.0 mi ENE 9.2 mph - N/A   Mostly Cloudy
10:19 PM 71.6 °F - 62.6 °F 73% 30.15 in 10.0 mi NE 10.4 mph - N/A   Scattered Clouds
10:56 PM 70.0 °F - 63.9 °F 81% 30.08 in 10.0 mi NE 9.2 mph - N/A   Clear
11:56 PM 70.0 °F - 63.9 °F 81% 30.06 in 10.0 mi NE 10.4 mph - N/A   Clear